Location: Cheching
(60.0667°N, 164.2167°W)
Time: 13:55:59
(UTC+00:00)

NOAA 19 - Pass Details

Date: 23 January 2021
Orbit: 840 x 862 km, 99.2° (Epoch: 01 March)

Event Time Altitude Azimuth Distance (km) Brightness Sun altitude
Rises 06:29:10 0° 220° (SW) 3,432 8.8 -26.7°
Reaches altitude 10° 06:32:38 10° 243° (WSW) 2,498 8.3 -27.1°
Maximum altitude 06:35:49 15° 278° (W) 2,138 8.2 -27.5°
Drops below altitude 10° 06:39:00 10° 314° (NW) 2,500 8.3 -27.9°
Sets 06:42:29 0° 337° (NNW) 3,437 8.8 -28.3°
